TimeCDT,TemperatureF,Dew PointF,Humidity,Sea Level PressureIn,VisibilityMPH,Wind Direction,Wind SpeedMPH,Gust SpeedMPH,PrecipitationIn,Events,Conditions,WindDirDegrees,DateUTC
12:14 AM,37.4,35.6,93,29.96,10.0,NNW,8.1,-,N/A,,Overcast,330,2012-10-11 05:14:00
12:34 AM,37.4,33.8,87,29.96,10.0,NNW,10.4,-,N/A,,Overcast,340,2012-10-11 05:34:00
12:54 AM,37.4,33.8,87,29.97,10.0,NNW,9.2,-,N/A,,Overcast,340,2012-10-11 05:54:00
1:14 AM,37.4,33.8,87,29.98,10.0,NNW,9.2,-,N/A,,Overcast,340,2012-10-11 06:14:00
1:35 AM,35.6,32.0,87,29.99,10.0,NNW,9.2,-,N/A,,Overcast,340,2012-10-11 06:35:00
1:54 AM,35.6,32.0,87,29.99,10.0,NNW,8.1,-,N/A,,Overcast,340,2012-10-11 06:54:00
2:14 AM,35.6,30.2,81,30.00,10.0,NNW,9.2,-,N/A,,Overcast,330,2012-10-11 07:14:00
2:34 AM,35.6,30.2,81,30.01,10.0,NNW,8.1,-,N/A,,Scattered Clouds,330,2012-10-11 07:34:00
2:54 AM,33.8,30.2,87,30.02,10.0,NW,6.9,-,N/A,,Clear,320,2012-10-11 07:54:00
3:14 AM,33.8,30.2,87,30.02,10.0,NW,6.9,-,N/A,,Clear,320,2012-10-11 08:14:00
3:34 AM,33.8,30.2,87,30.03,10.0,NW,9.2,-,N/A,,Scattered Clouds,310,2012-10-11 08:34:00
3:54 AM,32.0,30.2,93,30.03,10.0,NW,8.1,-,N/A,,Clear,310,2012-10-11 08:54:00
4:14 AM,32.0,30.2,93,30.04,10.0,NW,8.1,-,N/A,,Clear,320,2012-10-11 09:14:00
4:34 AM,30.2,28.4,93,30.05,10.0,NW,10.4,-,N/A,,Clear,310,2012-10-11 09:34:00
4:54 AM,30.2,28.4,93,30.06,10.0,NW,8.1,-,N/A,,Clear,320,2012-10-11 09:54:00
5:14 AM,30.2,28.4,93,30.07,10.0,NW,9.2,-,N/A,,Clear,310,2012-10-11 10:14:00
5:34 AM,30.2,28.4,93,30.08,10.0,NW,8.1,-,N/A,,Clear,320,2012-10-11 10:34:00
5:54 AM,30.2,28.4,93,30.09,10.0,NW,9.2,-,N/A,,Clear,310,2012-10-11 10:54:00
6:14 AM,30.2,26.6,86,30.09,10.0,NW,8.1,-,N/A,,Clear,320,2012-10-11 11:14:00
6:34 AM,30.2,26.6,86,30.10,10.0,NW,9.2,-,N/A,,Clear,320,2012-10-11 11:34:00
6:54 AM,28.4,26.6,93,30.10,10.0,NW,8.1,-,N/A,,Clear,320,2012-10-11 11:54:00
7:14 AM,30.2,26.6,86,30.11,10.0,NW,10.4,-,N/A,,Clear,320,2012-10-11 12:14:00
7:34 AM,30.2,26.6,86,30.12,10.0,NW,10.4,-,N/A,,Clear,310,2012-10-11 12:34:00
7:54 AM,28.4,26.6,93,30.13,10.0,NW,10.4,-,N/A,,Clear,310,2012-10-11 12:54:00
8:14 AM,30.2,26.6,86,30.14,10.0,NW,12.7,-,N/A,,Clear,310,2012-10-11 13:14:00
8:34 AM,30.2,26.6,86,30.15,10.0,NW,12.7,-,N/A,,Clear,310,2012-10-11 13:34:00
8:54 AM,32.0,26.6,80,30.16,10.0,NW,15.0,-,N/A,,Clear,310,2012-10-11 13:54:00
9:14 AM,33.8,26.6,75,30.17,10.0,NW,15.0,20.7,N/A,,Clear,310,2012-10-11 14:14:00
9:34 AM,33.8,26.6,75,30.18,10.0,NW,17.3,23.0,N/A,,Clear,310,2012-10-11 14:34:00
9:54 AM,35.6,28.4,75,30.19,10.0,NW,15.0,-,N/A,,Clear,320,2012-10-11 14:54:00
10:14 AM,35.6,28.4,75,30.20,10.0,NW,17.3,24.2,N/A,,Clear,320,2012-10-11 15:14:00
10:34 AM,35.6,28.4,75,30.20,10.0,NW,18.4,24.2,N/A,,Scattered Clouds,320,2012-10-11 15:34:00
10:54 AM,37.4,28.4,70,30.21,10.0,NW,16.1,21.9,N/A,,Mostly Cloudy,320,2012-10-11 15:54:00
11:14 AM,37.4,28.4,70,30.22,10.0,NW,15.0,24.2,N/A,,Overcast,320,2012-10-11 16:14:00
11:34 AM,39.2,28.4,65,30.22,10.0,NNW,19.6,24.2,N/A,,Overcast,330,2012-10-11 16:34:00
11:53 AM,39.2,30.2,70,30.23,10.0,NNW,17.3,21.9,N/A,,Overcast,330,2012-10-11 16:53:00
12:14 PM,39.2,28.4,65,30.24,10.0,NW,19.6,26.5,N/A,,Mostly Cloudy,320,2012-10-11 17:14:00
12:54 PM,39.2,26.6,61,30.25,10.0,NNW,16.1,-,N/A,,Overcast,330,2012-10-11 17:54:00
1:14 PM,39.2,26.6,61,30.25,10.0,NW,13.8,-,N/A,,Overcast,320,2012-10-11 18:14:00
1:34 PM,39.2,26.6,61,30.25,10.0,NW,20.7,27.6,N/A,,Overcast,320,2012-10-11 18:34:00
1:53 PM,39.2,28.4,65,30.25,10.0,NW,18.4,26.5,N/A,,Overcast,320,2012-10-11 18:53:00
2:14 PM,39.2,26.6,61,30.26,10.0,NW,17.3,24.2,N/A,,Overcast,320,2012-10-11 19:14:00
2:34 PM,39.2,26.6,61,30.26,10.0,NNW,18.4,24.2,N/A,,Overcast,340,2012-10-11 19:34:00
2:53 PM,39.2,26.6,61,30.26,10.0,NNW,17.3,23.0,N/A,,Mostly Cloudy,330,2012-10-11 19:53:00
3:14 PM,39.2,24.8,56,30.27,10.0,NW,16.1,27.6,N/A,,Mostly Cloudy,320,2012-10-11 20:14:00
3:53 PM,42.8,26.6,53,30.28,10.0,NW,18.4,25.3,N/A,,Mostly Cloudy,310,2012-10-11 20:53:00
4:14 PM,39.2,24.8,56,30.28,10.0,NNW,16.1,-,N/A,,Mostly Cloudy,330,2012-10-11 21:14:00
4:34 PM,41.0,24.8,53,30.29,10.0,NNW,13.8,17.3,N/A,,Mostly Cloudy,330,2012-10-11 21:34:00
5:14 PM,41.0,24.8,53,30.30,10.0,NNW,11.5,18.4,N/A,,Scattered Clouds,330,2012-10-11 22:14:00
5:34 PM,39.2,24.8,56,30.30,10.0,NW,13.8,-,N/A,,Clear,320,2012-10-11 22:34:00
5:54 PM,41.0,24.8,53,30.30,10.0,NNW,12.7,-,N/A,,Clear,330,2012-10-11 22:54:00
6:14 PM,39.2,24.8,56,30.31,10.0,NW,9.2,-,N/A,,Clear,320,2012-10-11 23:14:00
6:34 PM,37.4,24.8,60,30.31,10.0,NW,9.2,-,N/A,,Clear,320,2012-10-11 23:34:00
6:49 PM,37.4,26.6,65,30.31,10.0,North,-9999.0,-,N/A,,Clear,0,2012-10-11 23:49:00
7:14 PM,35.6,24.8,65,30.32,10.0,NNW,6.9,-,N/A,,Clear,330,2012-10-12 00:14:00
7:34 PM,33.8,24.8,70,30.33,10.0,NW,5.8,-,N/A,,Clear,320,2012-10-12 00:34:00
7:54 PM,32.0,26.6,80,30.33,10.0,WNW,3.5,-,N/A,,Clear,300,2012-10-12 00:54:00
8:14 PM,32.0,26.6,80,30.34,10.0,Calm,Calm,-,N/A,,Clear,0,2012-10-12 01:14:00
8:34 PM,32.0,26.6,80,30.34,10.0,WNW,3.5,-,N/A,,Clear,300,2012-10-12 01:34:00
8:54 PM,33.8,26.6,75,30.34,10.0,Calm,Calm,-,N/A,,Clear,0,2012-10-12 01:54:00
9:14 PM,30.2,26.6,86,30.34,10.0,Calm,Calm,-,N/A,,Clear,0,2012-10-12 02:14:00
9:33 PM,28.4,24.8,86,30.35,10.0,Calm,Calm,-,N/A,,Clear,0,2012-10-12 02:33:00
9:54 PM,28.4,24.8,86,30.35,10.0,Calm,Calm,-,N/A,,Clear,0,2012-10-12 02:54:00
10:12 PM,26.6,24.8,93,30.35,10.0,WSW,3.5,-,N/A,,Clear,250,2012-10-12 03:12:00
10:54 PM,26.6,24.8,93,30.35,10.0,SSE,4.6,-,N/A,,Clear,160,2012-10-12 03:54:00
11:14 PM,24.8,21.2,86,30.35,10.0,South,4.6,-,N/A,,Clear,180,2012-10-12 04:14:00
11:29 PM,24.8,21.2,86,30.35,10.0,South,4.6,-,N/A,,Clear,170,2012-10-12 04:29:00
11:54 PM,24.8,21.2,86,30.35,10.0,South,5.8,-,N/A,,Clear,180,2012-10-12 04:54:00